STARLINK-33722 (63571 NORAD) Tracking and Keplerian Element Data

This shows tracking and keplerian element data for the satellite.

Feedback or suggestion? Click here.




ElementValue
Catalog63571
NameSTARLINK-33722
Epoch Orbit3957
Epoch Day353.60315079
Epoch Year2025
RAAN53.8669
Inclination43.0013
Eccentricity0.0001564
Argument of Perigee273.7095
Mean Anonmoly86.3578
Mean Motion15.27613732
Decay Rate0.00026999
L11 63571U 25076C 25353.60315079 .00026999 00000+0 98602-3 0 9993
L22 63571 43.0013 53.8669 0001564 273.7095 86.3578 15.27613732 39579



Live tracking and technical data element details for STARLINK-33722 (NORAD 63571). STARLINK-33722 can be tracked NOW for your location showing map with azimuth and elevation plus other details from your city location.







IsCatalogInMostPopularTable: catalog: 63571, numindb: 6
Update: records affected: 1



GetName: 63571 STARLINK-33722

Hit Count: updated at: Sat, 11 Apr 2026 19:54:15 GMT